Theta_e
327 333 331 329 328 326 325 323 321 323 324 323 318 317 321 325 316 313 325 330 324 327 333 332 331 334 332 332 332 332 335 338 339 343 342 337 337 349 357 361 363 363 362 364 366 366 364 362 361 362 360 361 361 362 362 362 361 359 361 362 364 366 368 367 368 369 370 370 369 366 364 366 365 362 360 360 359 359 362 363 365 363 360 359 365 367 368
325 329 330 330 328 326 326 325 325 325 325 323 322 322 325 326 322 324 330 330 328 332 332 332 333 333 332 331 332 332 335 335 335 336 336 333 336 344 351 356 361 365 364 365 366 367 367 365 364 363 362 361 361 361 362 361 361 359 361 363 365 366 367 368 369 370 372 372 371 370 366 367 369 365 361 361 361 360 362 362 364 364 363 360 361 365 368
323 326 328 328 327 325 323 324 326 327 325 325 324 324 325 325 324 328 329 328 330 332 332 333 333 334 333 332 331 332 334 334 334 332 333 334 336 338 342 350 356 361 363 366 367 369 369 368 365 363 361 361 360 359 360 360 360 359 359 363 365 365 367 370 370 372 373 373 372 371 370 368 370 368 364 363 362 362 362 363 364 364 365 363 361 362 365
320 323 325 324 325 326 320 320 325 325 322 323 323 325 327 324 323 325 323 321 328 335 334 334 334 334 333 332 333 332 332 333 332 332 331 333 335 335 338 343 350 355 357 361 367 369 366 367 366 363 362 362 360 360 359 359 359 359 359 362 365 365 367 369 371 373 373 374 373 372 371 370 370 370 368 366 364 364 364 365 365 365 365 366 364 362 363
319 321 323 322 322 321 318 319 325 326 325 325 325 326 329 329 326 324 320 321 330 335 334 333 334 333 333 334 334 333 334 334 334 334 333 332 333 333 338 343 348 351 350 352 359 365 366 365 365 362 361 361 361 360 358 358 358 358 359 361 364 366 367 368 371 373 373 374 374 373 373 372 370 371 370 368 367 366 367 367 367 367 367 367 367 365 363
318 319 321 320 319 317 319 324 328 328 328 327 326 326 327 329 329 327 327 330 332 333 332 332 334 334 333 335 334 333 335 336 335 334 333 332 333 335 336 338 340 349 354 352 353 358 364 363 361 360 359 360 361 360 358 358 358 359 358 359 363 367 367 368 371 373 373 375 374 374 374 372 371 372 371 370 368 367 367 368 368 369 368 368 368 368 366
318 318 319 318 316 318 324 328 328 327 328 328 327 328 329 328 329 328 330 331 332 333 334 333 334 334 334 335 334 333 333 333 333 333 332 334 333 332 334 339 345 355 364 362 357 356 357 357 357 359 359 358 360 360 358 358 359 359 360 360 363 367 368 370 372 373 374 374 374 374 374 373 371 371 371 371 370 367 368 368 368 369 369 369 369 368 368
319 319 317 318 320 323 326 328 327 326 328 328 326 324 327 328 328 328 329 330 330 332 331 332 332 332 333 333 334 333 332 332 332 330 331 332 332 335 347 359 365 369 370 366 363 364 361 356 355 356 357 359 359 360 359 357 358 359 360 360 362 367 368 370 371 374 373 373 374 374 374 372 373 371 372 372 371 369 367 367 368 369 369 369 368 368 369
319 318 316 318 321 322 324 327 328 330 329 330 327 322 325 329 328 329 330 330 329 329 328 330 331 331 332 332 333 332 330 329 331 330 332 335 334 337 352 363 368 371 370 368 368 369 368 361 355 353 356 358 359 360 358 357 358 359 359 360 363 367 370 371 371 373 373 373 374 373 373 373 372 372 371 372 371 370 368 367 367 368 370 369 369 369 368
318 317 317 318 318 318 321 326 331 335 334 336 335 327 326 330 327 326 328 328 329 329 328 329 329 330 331 330 331 331 330 331 333 333 333 335 331 336 354 363 363 366 368 370 370 371 370 366 359 354 354 357 359 360 359 358 358 358 359 360 362 366 370 372 371 371 372 372 373 373 373 373 372 372 371 371 371 370 369 367 366 366 368 369 368 369 368
316 316 317 317 316 318 324 328 333 332 330 335 336 326 324 333 333 330 331 331 328 331 332 332 332 331 330 331 330 330 330 330 331 331 332 335 341 352 362 362 361 365 370 371 370 368 369 370 365 357 354 356 358 359 359 358 357 359 359 361 363 365 370 371 370 370 371 371 373 373 372 372 371 371 370 370 371 370 369 368 366 365 366 367 368 369 369
316 316 316 316 316 320 328 331 332 329 328 333 330 319 323 338 344 340 341 340 339 344 347 346 339 331 331 331 330 330 333 338 338 339 345 351 357 360 364 362 363 367 369 369 370 367 366 367 364 358 355 356 357 359 360 358 358 358 360 362 364 365 368 370 370 370 370 371 372 371 371 371 369 370 370 370 369 370 369 368 367 366 365 365 367 369 368
314 315 315 315 317 322 327 330 330 330 328 327 323 321 331 343 344 343 344 343 345 350 352 350 346 340 339 338 335 333 341 352 358 358 359 362 362 360 362 364 365 367 368 368 370 369 370 369 365 357 356 356 359 360 361 361 360 359 361 362 365 366 367 369 368 369 370 371 371 370 369 370 369 369 370 369 368 369 369 368 367 368 367 365 366 366 366
313 314 315 314 316 320 323 325 328 328 325 322 325 333 342 339 337 342 343 342 344 347 346 348 350 349 348 345 344 343 345 355 363 361 358 360 360 361 363 362 362 365 368 367 365 366 368 368 366 360 357 358 360 360 361 362 361 360 361 364 365 368 370 368 367 368 368 369 370 369 368 369 369 368 368 369 368 368 368 368 368 368 367 366 366 365 365
313 313 314 315 317 319 318 320 324 325 326 328 334 340 339 333 334 341 343 343 345 344 344 347 348 348 349 348 350 354 355 358 361 361 360 361 362 362 364 363 361 365 367 367 366 367 366 364 363 362 360 359 360 361 362 362 361 359 362 364 367 368 369 367 367 367 367 368 369 369 368 368 369 369 369 368 369 368 369 369 368 367 368 368 366 365 364
314 313 314 317 321 323 321 320 322 323 327 331 333 334 334 332 332 337 341 344 345 344 345 347 348 348 349 347 350 357 359 358 358 359 360 362 362 362 363 362 362 364 367 366 366 368 369 366 363 363 362 362 362 363 364 364 361 361 364 367 369 370 369 367 366 365 366 367 368 368 369 369 370 371 370 369 368 369 369 368 368 367 366 366 366 365 364
317 316 318 321 324 326 324 323 324 324 327 329 328 330 333 333 333 337 340 342 342 342 344 346 348 348 350 349 350 355 356 356 356 358 359 360 362 362 362 362 362 362 363 365 364 365 368 368 366 366 365 366 366 368 369 367 365 366 367 369 369 369 368 367 366 364 365 367 369 369 368 368 369 370 370 368 368 368 369 368 366 366 365 364 365 365 364
320 320 320 322 323 324 324 323 324 325 326 328 329 332 333 334 335 338 340 341 342 342 343 346 348 349 350 351 352 354 355 355 356 357 359 360 361 361 360 360 361 361 361 362 361 361 362 363 365 367 367 369 369 368 367 368 368 367 368 367 367 367 366 366 365 364 364 366 366 366 366 367 368 368 368 368 367 367 367 367 366 365 364 364 364 364 364
318 319 320 321 322 322 322 322 323 323 323 325 327 331 333 335 336 337 339 341 342 340 342 346 348 348 347 350 352 354 354 354 354 356 358 358 360 360 359 359 360 360 360 360 361 360 359 360 362 363 364 365 366 366 366 368 368 368 366 366 366 366 366 366 365 364 364 363 363 366 367 366 366 366 365 365 366 366 366 365 365 366 365 363 363 363 363
318 319 320 320 319 319 319 320 321 322 321 322 326 329 333 335 335 336 338 340 341 340 341 344 346 347 347 349 351 352 351 352 353 354 355 356 358 358 358 359 359 360 360 359 360 360 359 359 358 359 360 362 363 364 366 367 368 369 368 366 366 366 366 366 365 366 365 364 365 366 366 364 364 365 365 364 365 365 365 365 365 365 365 365 364 363 363
317 317 318 318 318 317 318 319 319 319 320 324 329 332 333 334 335 336 338 339 340 340 341 343 344 346 347 348 350 350 350 351 352 352 352 354 356 357 358 358 358 358 358 358 358 358 358 357 358 358 359 360 361 363 365 366 368 368 369 368 368 368 367 367 366 366 366 364 365 365 363 363 365 364 363 365 367 364 359 358 360 361 362 363 360 357 357
315 316 317 317 317 318 318 318 319 320 324 328 330 332 334 335 337 337 337 338 339 340 341 343 345 345 347 349 349 350 350 351 351 351 352 353 354 355 357 355 356 356 356 355 355 355 355 355 355 355 356 356 358 359 361 364 365 365 366 366 365 365 366 365 363 364 364 364 365 364 363 363 362 354 349 352 357 353 346 344 347 349 350 349 347 344 344
315 316 317 317 317 319 319 320 321 322 324 327 329 330 331 332 334 337 337 337 339 340 341 342 344 345 347 347 349 350 350 350 350 351 352 352 352 354 354 354 354 354 353 353 353 353 353 352 352 352 353 354 354 355 356 358 359 359 359 359 358 358 359 358 359 359 361 361 361 360 361 361 356 348 341 339 339 337 334 335 336 337 336 336 334 334 333
315 315 316 316 317 318 319 319 320 320 322 325 327 327 328 328 330 334 336 338 339 341 342 342 344 346 347 346 347 348 350 349 350 351 352 352 353 353 352 353 352 352 352 351 351 351 351 351 350 350 351 351 351 352 352 354 355 355 354 354 353 354 353 354 354 354 355 356 355 354 354 355 352 348 344 342 339 335 332 332 332 331 331 332 331 331 331
314 314 315 315 316 317 317 317 318 319 321 322 325 326 327 327 329 333 337 338 338 340 341 342 344 346 346 346 347 348 348 348 349 350 351 351 350 351 351 351 350 350 350 350 350 350 350 350 351 351 351 351 352 351 351 352 353 353 352 352 352 351 351 351 351 351 351 351 351 350 351 351 350 348 346 347 347 344 341 339 335 333 333 331 330 330 331
314 314 315 315 315 316 316 317 318 319 321 322 325 326 326 327 331 335 337 338 338 339 340 341 343 345 346 346 346 346 346 346 347 349 349 349 349 349 349 349 348 349 349 348 349 349 349 349 349 349 350 350 351 350 350 350 350 350 350 351 350 350 350 350 351 351 350 350 350 350 350 350 349 347 346 347 347 347 347 346 344 342 342 338 332 331 332
314 313 313 314 315 315 316 317 318 319 321 324 324 325 326 330 334 336 338 339 340 340 341 341 342 343 345 346 346 345 345 346 347 348 348 348 347 347 347 347 347 347 347 347 348 348 348 348 348 347 348 348 348 347 347 348 348 349 349 348 348 347 348 348 349 350 349 349 349 350 350 349 348 347 347 347 347 346 345 344 344 345 346 343 339 336 336
312 312 313 313 314 315 316 318 319 321 323 325 325 325 328 332 335 337 338 340 341 340 341 341 342 342 344 345 345 344 345 345 346 346 347 347 346 346 346 346 346 346 346 346 346 347 347 347 347 347 348 347 347 346 346 347 349 349 348 348 347 346 346 347 347 346 347 347 347 347 347 347 346 345 345 345 345 345 344 343 343 343 343 342 341 340 339
313 313 313 313 314 316 317 319 320 322 324 326 327 329 331 333 335 336 337 338 339 340 340 341 342 342 343 344 345 344 345 345 345 346 347 346 345 346 345 345 344 344 344 344 344 344 345 345 344 345 345 345 345 345 345 346 346 346 346 347 346 346 346 346 345 344 344 344 344 345 344 345 345 344 344 343 343 343 342 341 341 341 341 341 341 340 340
313 313 314 314 314 315 317 318 320 321 322 325 328 331 332 332 333 334 334 334 335 337 338 340 342 343 343 344 345 344 344 344 345 345 346 345 345 345 344 344 344 344 344 344 344 344 344 344 343 343 343 343 343 345 345 346 345 345 345 345 345 345 345 344 344 344 344 343 344 344 343 343 343 343 343 342 341 341 340 339 339 339 339 339 340 339 339
315 315 316 316 315 316 318 318 320 322 324 327 329 331 331 331 332 332 332 333 333 334 334 337 341 343 343 343 343 342 342 343 344 343 343 343 343 344 344 344 345 344 344 344 344 343 344 343 342 342 342 341 342 343 344 345 344 344 344 344 343 343 342 342 343 343 342 343 343 343 342 342 341 341 341 341 340 340 339 338 338 339 339 339 338 338 337
317 318 318 318 318 319 320 321 322 324 327 329 329 330 330 331 331 332 332 332 332 333 333 335 338 341 342 342 341 340 340 341 341 341 341 341 341 341 342 343 343 343 344 344 344 343 342 342 342 341 341 340 341 342 342 342 342 341 341 341 342 341 341 341 341 341 342 342 342 341 341 341 340 340 341 341 340 339 339 338 339 340 340 338 338 338 337
319 321 322 322 322 323 324 325 326 327 329 330 330 331 330 330 331 332 332 332 332 332 333 334 335 336 338 339 339 339 339 339 338 339 339 339 339 340 340 340 340 341 341 341 342 342 342 342 341 341 341 340 340 339 340 340 341 340 339 339 339 339 340 340 340 340 340 340 340 340 340 339 339 339 339 339 339 339 338 338 339 340 340 338 338 338 337
322 324 326 326 326 327 328 328 328 329 329 330 331 331 331 330 329 330 330 331 332 332 332 333 333 333 334 335 336 337 337 337 337 337 337 337 337 337 337 337 338 338 338 338 339 339 340 340 340 340 340 340 340 340 340 340 340 340 340 339 339 339 339 339 340 339 339 339 339 339 338 338 338 337 337 337 338 338 338 338 338 338 338 338 338 338 337
324 325 325 326 326 327 328 328 328 329 330 330 329 330 330 329 328 329 329 330 331 331 331 331 331 331 332 333 334 334 333 333 334 334 334 335 335 335 335 335 335 335 336 335 336 336 337 337 338 338 338 338 339 339 340 339 339 339 340 340 339 339 339 339 339 339 338 337 337 336 337 336 336 336 335 336 336 337 338 338 337 337 337 337 336 337 337
325 326 326 326 327 328 329 329 328 328 329 329 328 328 328 327 328 328 328 328 328 329 329 329 328 329 330 330 330 330 330 331 331 331 331 331 331 331 331 332 332 333 333 333 333 334 334 333 335 335 336 336 337 337 337 338 338 338 339 339 339 339 339 339 339 339 338 337 337 336 336 336 336 335 335 335 335 335 336 336 335 336 337 336 335 336 336
323 324 325 327 327 327 329 329 328 327 328 328 327 327 327 327 327 327 327 327 326 326 327 327 327 327 328 328 327 327 328 329 329 329 329 329 329 329 329 329 329 330 331 331 331 332 332 331 332 333 333 334 335 335 335 336 337 338 338 338 338 338 337 337 337 337 337 337 337 336 336 336 336 336 335 336 336 335 335 335 335 335 335 335 335 335 335
320 321 323 324 324 325 325 325 325 325 325 325 325 325 326 325 325 326 325 325 325 324 324 325 325 325 325 325 324 325 325 325 325 326 326 326 326 326 327 327 328 328 329 329 329 330 330 330 330 332 332 332 332 333 333 334 335 336 335 335 335 335 335 335 334 334 335 334 335 334 334 334 334 334 334 334 334 334 334 334 335 335 335 335 335 334 335
317 318 319 320 320 321 322 322 322 322 322 322 322 323 323 323 323 324 324 324 324 323 323 323 323 322 322 323 322 323 323 322 323 323 324 324 324 325 325 325 325 326 326 326 327 327 327 328 328 329 329 330 331 331 331 331 332 333 333 333 333 332 332 332 332 332 332 332 332 333 332 331 331 331 330 330 331 331 331 332 332 333 333 334 334 334 334
316 317 317 317 318 318 319 320 320 320 320 321 321 321 320 320 321 322 322 322 323 323 323 322 321 321 321 320 320 321 321 321 321 321 322 322 322 322 322 322 323 323 323 324 324 324 324 325 326 326 326 327 327 328 328 329 329 330 329 330 330 330 330 330 330 330 330 330 330 331 330 330 329 328 328 328 328 328 328 328 328 329 330 331 332 333 333
316 316 316 316 316 317 317 318 318 318 318 319 319 319 318 318 319 321 321 321 321 321 321 322 321 321 320 319 319 318 318 319 319 319 320 320 320 320 319 319 319 320 321 320 320 320 320 321 322 323 324 324 325 325 326 326 326 326 326 326 327 327 327 327 327 328 329 328 328 328 328 328 327 326 326 325 324 324 324 324 324 325 326 327 328 329 328
316 316 315 315 315 316 316 316 316 316 316 317 317 317 316 315 316 317 318 318 318 318 319 319 320 320 320 319 319 318 317 316 316 317 317 318 318 318 317 316 316 317 318 317 316 316 317 317 318 320 321 322 323 323 323 324 324 324 323 324 323 324 324 324 324 325 325 325 325 325 325 325 325 324 323 323 321 320 320 320 320 321 321 321 321 322 322
316 315 315 315 316 315 315 315 315 315 315 315 315 315 314 314 315 315 316 317 317 317 317 317 317 318 318 319 319 318 317 316 315 315 314 314 315 315 315 314 314 314 315 314 313 313 313 314 315 316 318 319 320 321 321 321 322 322 321 322 322 321 321 321 321 321 321 321 321 321 321 321 321 321 321 320 318 317 316 316 316 316 317 317 317 316 316
316 315 315 315 315 315 314 314 314 314 315 315 314 314 314 314 315 315 315 315 316 316 317 317 316 316 316 317 317 317 317 316 315 313 312 312 312 312 312 312 312 313 313 312 311 311 310 311 311 312 314 315 317 318 319 319 319 319 319 320 320 320 320 320 319 319 318 318 318 317 317 317 317 317 317 317 316 314 313 312 312 313 313 314 314 314 313
316 315 315 315 314 314 315 315 315 315 315 314 314 314 314 314 314 314 314 314 314 314 315 316 316 315 315 315 315 315 315 315 315 314 313 312 311 310 310 311 311 311 312 311 310 310 309 309 309 310 311 311 312 313 314 314 315 315 315 316 316 317 317 317 317 317 317 316 315 315 314 314 314 314 314 313 312 311 310 309 309 309 309 310 310 310 311
316 315 315 315 315 314 314 314 314 314 314 313 313 313 313 312 312 312 312 312 312 312 313 314 314 315 315 315 314 314 313 313 314 314 314 314 312 311 309 309 310 310 310 310 310 309 309 308 308 309 309 310 310 310 310 310 310 311 311 312 312 312 313 313 313 314 314 314 314 314 313 313 312 312 311 311 310 309 308 307 307 306 306 306 306 306 307
315 315 315 315 315 314 314 313 313 313 313 313 313 312 312 312 311 311 310 310 310 311 311 311 312 312 313 313 313 314 313 313 313 313 313 313 314 313 312 311 310 309 309 309 309 308 307 307 308 308 308 309 309 309 308 308 308 308 308 308 308 309 309 309 309 310 310 310 311 311 311 311 310 310 309 308 307 307 306 306 306 305 304 304 303 304 304
314 314 314 314 314 313 313 313 313 312 312 312 312 312 311 311 311 310 310 310 310 310 310 310 310 310 311 312 312 313 313 313 313 312 312 312 312 312 312 312 311 309 309 309 308 308 307 307 307 307 308 308 308 308 308 307 307 307 307 307 307 307 307 307 307 307 307 307 307 307 308 308 308 307 307 306 305 305 304 304 303 303 302 301 301 301 301
313 313 313 313 313 313 313 312 312 311 311 310 310 310 310 310 310 310 309 309 309 309 309 309 309 309 310 310 310 311 311 312 312 311 311 311 310 310 310 311 311 310 309 309 309 308 308 307 307 307 307 307 307 307 307 307 307 307 307 307 306 306 306 306 306 306 306 306 306 306 306 306 305 305 305 305 305 304 303 302 301 301 300 299 299 298 298
312 311 312 311 311 311 311 311 311 311 310 309 309 309 308 308 308 308 308 308 308 308 307 307 307 307 308 309 309 309 310 310 310 310 310 310 310 310 309 309 310 309 309 309 308 308 308 308 307 307 307 307 307 306 306 306 306 306 306 306 306 306 306 306 306 306 306 306 306 306 306 305 305 305 305 305 304 304 304 303 302 301 301 300 299 298 297
311 311 311 310 309 309 309 309 309 309 309 309 308 308 308 307 307 307 306 307 307 307 306 306 306 306 306 307 307 308 308 308 309 309 309 309 309 309 309 309 309 309 308 308 308 308 307 307 307 307 306 306 306 306 306 306 306 305 305 305 305 305 305 305 305 305 305 305 305 305 305 305 305 305 305 305 305 305 305 304 304 304 303 303 302 301 300
310 310 310 310 309 308 308 307 307 307 307 307 307 307 307 306 306 305 305 304 305 305 305 305 305 304 304 305 306 306 306 306 307 307 307 307 308 308 308 308 308 308 307 308 307 307 307 307 306 306 306 306 305 305 305 305 305 305 305 305 304 304 304 304 304 304 305 304 304 304 304 304 304 304 304 304 304 305 305 304 304 304 304 304 303 303 302
Wind_Speed
21 11 5 9 9 12 16 19 23 25 25 26 25 21 17 13 10 8 9 12 12 5 9 10 9 8 8 8 8 8 9 8 7 7 5 6 8 9 9 9 10 10 10 10 11 13 15 17 21 24 25 26 27 27 28 30 30 31 32 33 33 33 32 33 33 34 34 33 34 35 34 33 34 34 33 32 32 31 30 29 29 29 30 30 29 28 29
20 16 10 9 11 12 11 13 18 23 25 26 24 22 21 17 14 11 8 12 14 11 8 9 10 7 5 4 4 5 8 9 7 6 5 7 10 12 11 11 11 11 11 12 12 13 14 15 18 22 22 23 26 27 27 28 29 29 29 30 32 31 31 31 31 32 32 32 32 33 33 33 33 34 33 32 32 32 32 31 29 29 29 30 30 29 29
14 15 12 11 12 12 12 12 14 18 23 24 22 21 20 18 16 15 12 9 10 10 10 8 9 8 5 4 3 2 4 5 5 5 6 7 9 10 10 10 10 10 10 11 12 14 14 15 18 21 22 23 25 26 27 28 28 28 28 28 30 31 30 29 29 30 31 31 31 31 33 33 32 32 32 32 31 32 32 32 30 29 29 29 30 30 29
9 12 14 14 12 12 14 15 14 15 17 18 18 18 18 17 16 16 15 11 7 7 9 9 8 7 6 6 7 7 7 6 5 5 5 5 6 6 6 6 7 7 8 9 12 14 14 17 20 22 22 23 24 26 27 27 27 28 28 28 29 30 28 27 27 28 29 29 29 30 31 31 31 30 30 30 30 30 31 31 31 30 29 29 30 30 29
8 12 15 16 14 12 13 14 15 16 14 14 14 15 16 17 16 13 12 10 8 7 9 10 10 10 10 10 9 9 8 7 7 7 7 7 7 7 7 7 6 6 5 6 8 11 12 16 20 23 24 24 25 26 26 25 26 28 29 28 28 28 28 27 27 27 27 27 27 28 29 29 29 28 29 30 30 30 29 29 29 29 29 29 29 30 30
7 11 13 13 15 14 10 9 13 16 16 14 14 13 13 14 12 10 9 8 8 9 9 10 11 10 10 10 10 9 8 6 7 8 9 9 9 8 8 8 6 4 2 2 3 6 10 14 17 21 24 24 24 25 26 26 27 28 28 27 27 28 29 28 27 27 27 27 27 26 26 27 27 27 28 29 30 29 28 29 29 29 29 29 29 30 30
7 8 9 11 14 12 7 6 11 15 17 16 16 15 14 14 12 12 11 9 6 6 6 7 8 8 7 7 8 8 8 8 9 10 10 10 10 10 9 7 4 1 2 1 2 4 7 10 13 17 20 22 22 24 26 27 27 27 27 27 26 27 29 29 28 28 28 27 27 26 25 26 27 28 28 28 29 29 27 28 28 28 28 29 29 29 29
6 7 9 10 6 2 4 7 9 11 15 18 18 17 17 17 15 14 14 13 10 9 7 6 6 6 6 6 7 9 11 12 11 12 11 9 10 8 3 1 2 2 1 1 2 2 4 7 10 13 17 20 22 24 26 27 27 27 27 26 26 27 28 29 29 28 28 27 26 26 26 27 28 28 28 28 28 28 27 26 26 27 27 28 28 28 28
7 7 9 9 5 2 5 7 5 4 8 11 13 14 16 18 17 15 13 13 13 13 11 10 9 8 8 7 8 11 14 13 12 13 12 10 11 8 0 4 3 1 1 2 3 4 5 7 9 12 14 19 22 23 24 26 26 27 27 27 27 27 27 29 29 28 27 27 26 27 27 28 29 29 28 27 26 26 26 26 25 25 25 26 26 27 29
8 8 8 10 11 9 8 7 5 3 3 3 3 6 9 12 17 17 15 14 13 12 12 11 10 9 9 8 8 9 11 12 12 13 13 12 12 6 1 2 1 1 1 2 3 4 6 7 10 11 13 17 21 21 23 25 26 27 27 28 28 27 26 26 27 26 27 27 27 28 28 28 28 27 26 25 25 25 26 26 26 25 24 24 25 27 28
9 9 9 10 11 9 7 8 8 7 5 1 2 6 6 4 7 9 10 12 12 11 11 10 10 9 9 8 7 8 10 13 14 13 11 8 4 1 3 1 1 0 1 2 4 6 8 9 10 12 13 17 19 20 22 24 25 26 26 27 27 26 25 24 25 25 26 27 27 27 28 27 26 25 25 24 24 25 25 25 26 26 25 25 25 26 27
10 11 10 9 8 5 3 5 6 4 3 4 6 9 5 3 4 3 3 3 3 4 6 6 7 9 8 7 7 7 7 8 6 4 3 2 3 4 2 1 2 1 1 2 4 6 7 8 10 12 14 16 17 19 20 22 23 24 24 24 24 24 23 22 23 24 24 25 26 25 25 25 24 24 24 24 24 24 25 25 24 25 25 25 25 25 25
11 13 11 9 9 6 3 5 7 5 1 6 8 6 2 6 6 6 6 6 6 8 8 5 4 5 6 8 9 5 3 6 7 8 8 6 4 3 3 4 4 2 1 1 3 3 2 4 8 11 14 15 15 17 18 19 20 21 21 21 22 22 22 22 22 23 23 24 24 23 23 23 23 23 23 23 23 24 23 22 22 23 23 24 24 24 25
10 11 11 10 9 6 6 7 7 7 4 6 4 2 1 5 6 7 7 7 8 9 8 6 6 7 9 12 11 7 4 3 5 6 5 4 3 3 3 3 2 3 1 1 2 2 1 4 7 9 13 14 13 15 16 17 17 18 19 20 20 21 22 21 22 22 22 21 22 22 21 21 22 22 21 21 21 21 21 20 21 21 21 21 21 22 23
9 10 11 11 8 5 7 10 5 6 6 0 3 0 3 7 8 6 5 6 8 8 8 7 8 10 11 11 9 7 5 3 3 4 4 4 3 2 2 1 1 1 0 1 0 1 1 5 7 9 11 13 12 13 14 15 16 15 16 18 18 18 19 20 20 20 20 20 20 19 19 20 20 19 19 19 18 19 19 18 19 20 21 20 20 21 22
9 10 11 7 3 2 4 7 6 6 4 3 5 3 5 7 6 5 4 5 6 7 8 8 8 10 11 10 7 4 4 3 1 2 3 2 1 2 3 3 3 2 1 2 3 3 1 3 6 8 10 12 12 12 11 12 14 14 14 15 16 16 17 18 18 18 18 18 18 17 17 18 18 17 17 18 17 17 17 18 18 19 20 20 19 20 21
6 7 6 3 6 6 4 3 4 6 9 11 9 7 6 7 6 6 5 5 6 8 9 8 8 9 9 9 7 5 5 5 3 1 1 2 2 3 4 5 3 3 3 4 4 4 4 3 4 6 9 11 12 12 10 9 11 13 13 14 15 15 15 16 16 16 16 16 16 15 16 16 17 16 16 16 16 16 17 18 19 18 19 19 19 19 20
7 7 8 7 7 7 6 6 7 10 12 12 11 9 8 8 8 7 6 6 7 8 8 8 8 8 9 8 6 4 4 3 2 1 1 3 3 3 4 4 4 3 4 5 5 5 5 5 5 6 8 10 12 12 10 9 9 11 12 12 13 13 13 14 14 15 15 15 15 15 14 14 14 14 15 16 16 16 16 17 17 16 17 17 17 18 19
7 5 6 8 8 7 9 11 11 11 11 10 10 10 9 9 10 10 9 8 8 8 8 7 7 8 9 9 7 4 3 4 3 2 2 1 3 4 4 4 3 4 5 5 6 6 6 6 7 7 8 10 10 11 10 9 9 9 10 11 11 11 12 12 13 14 14 14 14 14 14 13 13 13 14 14 14 14 15 15 15 15 16 16 16 17 17
9 8 10 11 12 12 12 11 10 11 11 11 12 12 12 12 13 12 11 10 9 9 8 8 8 8 9 9 7 5 4 4 4 4 4 2 2 5 5 3 3 5 7 6 6 7 7 7 7 8 9 9 9 9 9 9 10 10 10 10 11 11 11 11 11 12 12 12 13 13 13 13 11 11 12 12 13 13 11 10 11 12 13 14 14 14 13
11 11 12 13 14 14 13 14 14 12 11 12 13 14 14 15 15 14 12 11 10 10 10 9 9 9 8 8 8 7 5 4 4 5 5 3 2 4 5 5 5 6 7 8 8 8 8 7 8 9 9 10 9 9 9 9 11 12 11 11 12 12 11 11 11 11 10 11 11 12 13 12 8 5 3 4 5 4 4 3 1 3 4 5 6 8 8
10 11 11 10 10 10 10 12 14 11 10 12 13 13 14 15 16 15 14 13 11 10 9 9 9 9 9 7 7 7 5 5 5 5 5 5 4 5 6 7 7 8 8 9 10 9 9 8 8 9 9 10 10 10 10 10 11 12 12 12 13 12 11 11 10 10 11 10 9 9 10 10 10 11 10 7 6 7 9 7 4 2 2 3 6 8 8
11 10 9 8 8 9 10 12 13 12 11 12 13 13 12 14 16 17 16 14 12 10 8 9 10 10 8 7 7 6 4 4 4 5 5 5 5 6 7 8 9 9 10 11 11 11 10 10 9 10 10 10 10 10 11 11 12 13 12 12 11 11 10 9 9 9 9 8 7 7 7 8 9 10 12 12 11 11 11 10 9 8 6 5 5 6 7
12 12 11 9 10 11 13 16 16 14 12 12 13 13 12 13 15 17 16 14 13 11 8 8 9 9 8 6 6 6 4 4 3 5 6 6 7 9 10 10 11 11 11 12 12 12 12 12 12 12 12 12 11 11 11 12 12 13 12 12 12 12 11 11 11 11 11 10 10 9 9 8 7 7 9 11 12 13 13 13 12 12 10 9 8 8 8
13 13 13 13 14 15 15 16 17 15 13 13 13 13 13 13 14 16 16 13 11 10 9 7 5 5 4 4 4 5 5 5 4 5 6 8 9 11 12 13 13 13 13 13 14 14 15 15 15 15 15 15 14 13 13 14 14 14 14 14 15 15 14 14 14 13 12 12 11 10 9 9 8 6 6 7 8 9 10 10 10 10 9 8 8 8 7
15 14 14 15 16 16 15 15 15 15 14 13 12 12 13 13 15 15 14 12 11 10 9 7 4 2 3 5 6 7 7 8 7 7 8 9 10 11 13 14 15 15 15 15 16 16 17 17 16 16 16 16 16 15 15 15 16 16 16 17 16 16 15 15 14 13 12 11 11 10 10 8 8 8 8 7 6 6 6 5 5 5 5 7 8 9 9
14 13 14 16 17 17 16 16 16 15 13 12 12 13 14 13 12 12 12 12 11 9 7 6 5 5 5 7 8 9 10 10 9 8 8 10 12 13 14 16 18 17 18 18 17 17 18 18 17 17 16 15 15 16 16 15 16 16 16 16 16 15 15 14 13 12 12 11 11 10 9 8 8 8 8 7 6 6 5 4 4 3 3 6 9 11 13
14 14 15 16 16 16 16 16 15 14 13 13 12 12 12 10 10 10 10 10 8 8 8 8 8 8 7 8 10 10 12 12 11 10 10 12 15 17 18 18 18 18 18 19 18 18 18 18 18 18 16 15 14 15 15 14 14 14 14 14 14 14 14 13 13 13 12 12 11 10 9 8 8 9 8 7 7 6 6 6 6 5 4 6 9 12 13
15 15 16 17 17 17 15 14 13 12 12 12 10 10 11 11 10 8 6 4 4 6 8 9 9 8 7 8 9 10 11 12 13 12 13 15 18 19 19 19 20 20 20 19 18 18 18 18 18 17 16 15 15 15 14 14 13 13 13 12 12 12 12 12 13 13 13 12 11 10 10 9 9 9 9 8 7 7 7 7 7 6 6 8 10 11 12
16 16 17 18 18 17 17 15 13 12 12 12 11 10 9 7 5 3 1 2 2 1 1 4 8 9 7 7 9 10 11 12 14 15 17 19 19 19 19 20 19 18 18 18 18 18 18 18 17 17 16 15 15 15 15 15 15 14 13 13 13 14 13 12 12 12 12 12 10 9 9 10 9 9 8 7 6 6 6 7 6 6 7 8 9 10 12
16 17 19 19 18 19 18 15 12 11 11 10 8 8 7 7 7 6 5 5 5 5 7 4 3 7 7 7 10 13 14 14 15 16 17 19 19 18 19 20 17 14 16 18 19 18 18 18 17 16 15 15 14 14 14 14 15 15 14 14 15 14 13 12 12 12 12 12 10 10 10 9 9 8 7 7 6 6 6 6 6 6 7 7 9 10 12
16 16 18 18 17 16 15 13 11 12 10 8 8 8 9 9 9 9 9 9 8 8 8 7 3 3 8 12 14 15 16 16 18 19 19 20 20 19 20 21 21 20 20 20 19 18 18 18 17 15 14 14 13 13 13 12 12 13 13 13 13 12 11 11 12 12 12 12 11 11 10 9 9 9 8 7 7 6 6 6 6 5 6 7 9 9 11
15 14 14 15 14 14 13 12 11 10 9 9 8 9 10 11 10 10 9 10 10 9 8 7 8 6 6 13 16 15 16 18 19 20 20 21 21 21 21 22 22 23 22 21 21 19 18 17 16 15 13 13 13 12 12 11 11 11 12 12 12 12 12 12 12 12 12 12 11 11 10 8 8 8 7 7 7 6 6 6 6 6 6 7 8 8 10
13 10 9 10 10 9 10 9 9 8 8 8 8 9 11 12 13 12 10 10 11 9 8 9 11 12 10 13 16 17 17 16 14 14 17 18 19 20 22 23 24 24 24 23 22 21 19 16 15 14 14 13 13 12 11 11 11 11 10 11 12 12 12 12 12 12 12 11 10 9 9 8 8 7 6 6 6 6 6 6 6 6 6 7 8 8 10
9 7 7 7 6 6 7 9 10 9 8 8 9 11 12 14 16 16 14 12 12 12 12 13 14 15 15 15 15 15 16 17 16 16 18 20 21 22 23 23 23 24 24 23 22 21 20 19 17 15 15 14 13 13 13 10 11 11 11 11 12 12 12 12 11 11 10 10 9 9 9 8 7 6 6 6 6 6 6 6 6 6 7 8 8 9 9
8 9 8 6 6 8 9 10 12 11 10 11 12 13 15 17 19 19 18 17 17 18 18 19 18 17 15 15 15 14 15 17 18 20 21 22 23 24 24 23 22 22 22 22 22 20 19 20 19 18 17 16 16 18 18 14 11 12 12 11 11 11 12 11 11 12 12 11 11 10 10 8 7 7 8 8 7 6 6 6 7 7 7 8 9 9 9
16 12 8 7 8 10 11 11 12 12 12 13 15 16 17 18 18 20 22 21 21 21 22 23 21 17 15 16 19 20 20 19 20 23 24 24 25 26 26 24 23 21 18 17 19 19 19 20 20 18 17 18 18 19 20 18 14 13 12 12 11 11 12 12 12 13 14 13 13 11 10 9 9 10 11 12 11 10 10 10 10 10 9 9 8 9 9
19 15 14 14 14 13 15 18 19 19 18 16 16 17 20 21 22 23 24 23 22 24 25 25 23 21 20 21 22 22 23 24 25 27 27 26 27 28 27 25 23 21 18 17 18 20 20 20 20 19 18 18 18 18 19 18 15 13 12 12 12 12 13 13 14 14 14 14 14 13 12 12 12 12 12 12 12 13 13 13 13 13 13 11 10 10 10
18 17 19 20 17 14 17 21 23 23 23 20 16 17 21 24 25 25 25 24 25 26 26 25 24 23 23 21 20 20 23 25 26 27 27 27 27 28 27 26 25 24 21 20 21 23 22 21 20 20 19 18 17 17 17 17 15 13 13 13 13 14 14 14 14 14 14 14 14 13 13 13 13 13 13 12 12 13 14 14 14 14 14 13 12 12 11
19 19 20 20 18 16 16 17 19 23 26 24 20 19 22 24 25 25 25 25 24 25 26 26 23 21 20 19 19 20 24 26 26 26 25 25 26 25 23 24 26 26 24 23 23 24 25 24 22 20 20 19 17 16 17 17 16 15 15 14 14 14 15 15 15 15 14 15 14 13 13 13 13 13 14 14 14 14 15 15 15 14 14 13 13 14 13
19 19 20 19 17 17 17 17 18 21 26 27 25 24 26 27 25 22 21 22 23 24 26 26 23 20 20 20 21 22 25 27 28 28 26 24 22 18 15 17 23 25 24 24 24 25 26 27 25 22 20 20 19 18 17 17 17 17 18 17 17 17 17 17 17 16 15 14 14 13 13 13 13 14 15 16 16 16 15 16 16 15 15 15 14 14 15
18 19 18 16 15 17 18 18 18 19 22 25 25 26 28 31 29 25 23 24 25 25 26 26 25 23 22 21 21 22 24 25 26 27 27 26 22 17 12 16 23 27 25 25 26 27 26 27 27 25 22 21 20 20 19 18 18 19 20 20 21 20 20 19 18 17 16 15 15 15 14 14 15 16 16 16 17 17 17 17 17 17 17 18 17 17 17
17 17 15 14 15 18 19 20 19 19 20 23 25 27 28 30 30 28 25 25 25 23 23 24 24 24 23 22 20 20 20 21 22 23 24 26 26 24 20 19 23 26 26 26 27 27 26 26 26 26 25 23 22 21 20 20 20 20 21 21 22 21 21 21 20 19 18 18 17 17 17 17 17 17 17 17 17 17 17 17 17 17 17 18 19 21 23
18 18 16 15 16 18 19 20 20 18 16 18 22 25 25 25 25 24 22 22 23 22 21 21 21 21 22 22 20 19 18 19 19 19 19 19 22 25 25 23 23 24 25 25 25 25 27 28 27 26 25 25 23 22 21 21 21 21 22 22 21 21 21 21 21 20 20 19 19 19 19 19 18 18 18 17 17 17 17 17 17 17 17 17 18 20 23
18 18 18 18 18 18 18 17 15 13 14 17 20 21 21 21 22 23 22 22 22 22 21 21 21 20 20 20 19 19 19 19 19 18 16 14 14 17 21 22 22 23 23 24 23 24 27 29 29 27 25 25 24 23 23 22 22 22 22 21 21 21 21 20 20 20 19 19 19 19 20 20 19 19 19 18 17 17 17 18 18 18 18 18 18 18 18
17 17 17 17 17 16 17 16 16 16 17 17 17 18 19 20 21 21 21 21 21 21 21 22 22 21 20 19 17 17 18 19 19 19 18 15 14 16 18 20 21 23 24 24 23 24 26 27 27 26 25 25 24 24 23 23 23 23 22 21 21 21 20 20 19 19 19 19 19 19 19 19 20 20 20 20 19 18 18 18 19 19 20 20 19 19 18
17 17 17 16 16 16 17 18 18 18 16 13 11 14 17 19 19 19 20 20 20 20 20 21 21 21 21 20 18 16 16 16 16 17 17 16 15 15 16 16 17 20 22 23 24 25 26 26 25 24 23 23 22 22 22 22 22 22 22 22 21 20 20 19 19 19 18 18 18 18 18 19 19 20 20 21 21 21 20 19 19 20 21 21 21 21 21
17 17 17 17 17 17 17 17 16 15 14 12 12 13 16 17 18 18 18 17 18 18 18 19 19 19 20 20 19 18 17 15 13 13 14 15 14 14 14 16 15 15 16 18 21 23 24 24 23 22 21 21 20 20 20 20 20 21 21 21 21 20 19 19 18 18 18 19 19 18 19 19 18 18 18 19 19 20 21 21 21 21 22 24 25 25 24
17 16 17 17 17 16 16 15 14 13 13 14 14 14 15 15 16 16 16 15 16 16 16 17 17 17 17 17 17 17 17 16 13 12 13 13 13 13 13 15 16 15 13 14 15 18 20 21 21 20 19 19 19 19 19 19 19 19 19 19 19 19 19 19 18 18 18 18 18 18 18 18 18 18 17 17 17 17 18 19 20 21 22 25 28 31 30
15 15 15 15 16 16 15 14 13 13 13 14 14 14 14 15 15 15 15 14 13 14 14 15 15 15 15 15 15 15 15 15 14 12 12 12 12 12 12 12 14 14 13 12 13 14 16 17 17 17 17 18 18 18 18 18 18 18 18 18 17 17 17 17 17 18 17 17 17 17 17 16 16 16 16 16 16 15 15 15 16 18 19 20 22 26 29
14 13 13 14 14 15 16 15 15 15 15 14 14 13 14 13 14 14 16 15 14 12 13 13 14 15 14 13 13 13 13 13 13 12 11 11 10 11 11 11 12 12 12 12 12 13 14 15 16 15 15 15 15 16 16 16 16 16 16 16 16 17 17 16 15 16 16 15 15 15 15 14 14 13 13 13 12 13 13 13 13 14 15 15 15 16 20
13 13 13 12 13 13 14 14 14 15 15 15 14 14 13 13 13 14 15 16 15 13 12 12 12 14 14 13 12 12 12 12 12 12 12 11 10 10 10 10 11 10 10 11 11 12 12 14 14 15 14 14 13 13 14 14 14 14 14 13 13 14 15 16 15 14 14 13 13 13 13 13 12 11 11 11 11 12 12 12 12 12 13 13 13 13 14
Wind_Direction
244 248 294 307 276 230 215 214 211 206 205 207 209 215 214 204 217 224 186 202 227 196 144 160 163 152 149 156 163 145 130 134 131 127 152 178 171 161 159 163 170 174 180 186 188 191 195 199 199 200 203 202 202 203 202 202 202 199 193 191 191 190 190 192 192 191 192 194 197 201 202 202 204 206 208 210 210 211 211 211 212 213 214 213 210 207 206
243 245 245 257 260 245 235 237 226 212 207 208 209 213 216 211 217 227 197 192 215 219 187 161 152 158 173 169 163 138 138 148 141 140 175 183 164 155 154 161 170 174 178 185 189 192 195 199 200 200 202 202 202 203 202 202 204 202 195 191 191 192 192 193 192 189 189 192 194 197 199 200 201 203 206 207 208 210 211 212 212 212 213 214 213 210 207
245 246 240 240 250 244 235 241 240 222 210 208 209 210 213 214 214 217 212 199 203 213 221 207 173 168 190 220 234 227 192 184 161 159 187 184 166 158 156 160 165 170 178 183 187 192 195 197 199 200 201 201 202 203 202 201 202 202 198 193 192 194 195 192 190 189 189 191 192 193 197 198 199 200 202 205 207 209 211 212 213 213 213 214 215 214 210
247 244 233 229 237 242 237 233 234 230 217 210 211 209 209 213 213 214 217 216 206 192 206 229 229 216 225 239 244 254 258 254 248 235 227 211 194 190 177 166 164 173 184 186 187 194 197 196 198 200 199 199 200 203 203 200 199 201 200 196 194 195 196 192 189 190 190 191 191 192 195 196 197 197 199 203 205 207 209 210 211 213 213 213 214 215 214
241 234 228 226 230 236 235 228 224 226 225 222 219 212 210 213 213 216 221 222 222 207 198 216 231 231 234 239 242 247 251 254 260 263 262 257 244 225 203 189 190 200 209 200 193 197 198 197 199 200 199 198 199 201 201 198 198 200 201 199 194 194 195 193 191 190 190 191 192 193 194 194 195 196 197 201 203 205 207 208 209 211 212 212 213 214 215
237 221 214 217 225 229 226 217 221 227 231 232 230 221 215 215 215 225 232 227 223 221 216 218 224 227 233 238 237 236 239 252 262 261 261 262 258 245 231 224 220 211 198 184 188 199 203 202 201 200 200 201 200 198 198 197 197 199 200 199 193 191 193 194 191 190 190 192 193 194 193 192 194 196 198 201 203 204 206 207 208 209 211 213 213 214 216
248 218 193 202 221 231 234 222 221 228 231 234 240 240 234 229 227 232 238 238 229 223 223 226 231 236 240 241 243 243 247 253 256 254 250 246 247 252 257 262 261 174 123 160 197 208 212 210 204 200 200 200 198 197 198 198 197 196 198 198 194 190 192 193 191 190 190 192 193 192 191 192 194 198 201 202 203 204 206 207 209 209 211 214 215 215 217
254 237 208 204 211 244 253 234 221 220 223 224 229 236 236 234 234 234 236 237 235 233 231 229 235 243 245 246 251 255 257 258 257 259 258 248 243 247 262 19 71 88 83 274 257 232 219 217 213 207 201 198 197 198 198 198 197 195 195 197 195 192 192 193 192 191 191 191 191 191 191 193 196 200 203 203 202 204 207 210 211 211 213 216 217 218 219
238 247 227 213 210 209 212 214 206 203 215 219 225 233 233 230 232 237 240 239 238 236 233 230 233 238 240 244 243 244 247 247 248 254 260 261 258 257 45 78 96 114 254 260 251 237 226 224 226 220 207 198 196 197 197 198 197 195 195 197 197 194 193 194 193 193 192 191 191 192 192 195 199 201 203 203 203 204 208 211 214 214 216 218 219 220 221
228 239 233 220 223 225 211 195 174 175 230 253 237 231 225 217 219 226 233 236 237 240 240 237 236 236 241 247 247 245 244 242 242 245 247 252 256 255 105 99 160 183 217 246 251 245 238 232 230 228 215 200 195 195 197 197 196 195 196 198 197 195 194 195 195 194 194 193 193 194 195 197 200 202 202 204 204 204 207 212 216 217 217 219 221 221 223
225 226 229 223 222 225 217 194 173 177 211 230 165 205 213 199 204 218 233 237 234 237 245 247 241 238 242 248 248 244 242 240 237 235 233 237 244 73 72 53 287 345 351 306 281 256 244 236 226 224 218 204 196 195 197 197 197 197 198 197 195 196 196 195 196 196 196 196 195 196 198 199 201 201 201 203 203 204 208 212 216 218 219 221 222 223 224
225 225 227 225 226 237 225 179 147 136 192 183 184 200 198 59 46 42 359 301 282 310 313 287 245 231 239 256 255 252 264 270 250 202 159 122 83 71 55 30 24 0 304 284 272 256 241 229 219 216 212 205 198 194 195 198 199 198 198 194 192 195 196 195 196 196 196 197 197 198 199 199 201 201 201 202 203 204 207 212 215 217 219 222 224 226 227
227 228 226 225 230 246 245 174 132 96 212 213 201 194 122 50 42 40 21 1 6 5 350 326 273 258 289 302 292 286 342 9 36 73 85 82 75 58 33 34 19 317 280 251 265 274 248 216 212 208 205 202 197 191 192 199 201 197 194 191 189 192 194 195 195 195 195 196 197 199 200 199 201 202 202 203 205 205 208 211 214 216 219 223 227 229 231
221 222 224 229 229 235 253 229 165 135 195 216 187 169 33 25 37 42 21 2 7 4 346 327 310 304 308 312 317 329 358 40 56 67 80 88 87 72 50 33 327 285 290 206 242 255 221 215 216 208 201 198 193 189 192 199 200 193 188 187 188 189 191 193 194 195 196 196 195 198 201 200 200 202 203 204 206 207 209 212 214 217 219 221 228 234 237
219 218 219 228 226 210 242 256 232 179 192 188 43 336 316 2 20 31 18 4 3 355 340 328 316 307 303 304 319 341 350 26 64 65 70 76 81 88 90 102 165 236 323 74 63 338 238 211 211 204 195 187 183 185 190 195 195 188 182 182 183 184 186 190 193 195 195 194 193 196 198 197 197 199 200 203 205 206 209 213 217 221 222 224 229 238 243
211 217 212 219 266 282 248 255 244 215 221 345 356 323 317 334 348 9 7 357 357 345 332 323 312 304 297 288 282 293 305 312 348 68 77 77 90 94 78 75 87 96 82 82 71 30 26 183 194 193 185 177 174 175 179 186 187 179 172 172 174 176 181 186 190 193 194 193 192 193 193 193 195 197 198 201 204 205 209 216 221 225 228 229 232 238 243
244 253 249 292 341 331 302 271 282 309 325 330 330 335 332 318 330 357 348 336 345 337 325 318 308 299 293 284 272 262 267 276 281 264 132 132 125 97 78 67 64 77 87 93 94 77 67 97 153 169 167 162 160 159 157 161 164 160 157 162 167 171 176 181 186 189 189 189 189 189 190 191 194 197 199 202 206 208 212 220 225 229 233 233 233 238 243
294 289 273 272 283 292 304 323 329 329 330 328 327 335 336 325 330 339 333 332 335 324 316 314 304 300 303 298 286 275 274 271 266 262 190 147 125 108 100 86 72 82 95 99 107 104 93 95 115 133 142 143 147 154 156 156 153 150 152 158 164 169 172 174 181 185 185 187 187 187 189 190 191 194 200 206 209 211 214 219 224 229 234 236 237 241 246
282 273 258 258 266 290 317 325 317 309 310 318 322 323 327 327 322 320 322 324 318 311 312 309 298 295 299 296 285 269 269 271 264 262 248 177 112 96 98 92 88 100 102 100 110 114 112 108 108 118 129 133 141 149 152 152 149 146 151 156 158 163 166 167 175 181 183 185 183 180 183 185 186 192 199 206 211 213 216 222 225 227 231 234 238 243 248
257 260 269 280 289 299 305 303 297 297 305 316 320 319 320 320 314 311 314 315 314 316 315 310 305 299 291 288 285 266 248 255 265 262 248 224 111 98 107 116 122 116 106 99 101 104 106 109 111 117 119 117 123 129 131 137 142 141 146 149 148 153 157 156 162 169 172 173 171 171 178 183 183 189 197 203 208 211 216 224 228 231 235 237 241 247 254
248 249 257 271 284 290 285 275 272 279 299 318 325 324 320 313 308 308 311 312 311 312 311 310 307 296 284 280 281 272 253 240 245 249 240 220 159 138 141 129 113 108 106 105 102 95 90 92 100 110 107 101 105 109 105 113 125 127 131 136 135 136 137 138 145 152 156 163 165 167 175 172 145 108 118 168 176 154 115 105 180 239 258 267 281 292 303
241 240 241 251 269 275 268 266 271 286 315 327 325 323 318 312 308 308 308 306 300 298 304 307 298 286 281 275 265 259 251 234 228 229 221 200 173 156 141 124 116 114 110 105 101 95 89 85 86 95 99 99 105 106 98 97 105 108 113 119 120 121 124 128 136 141 143 152 157 155 156 144 110 83 74 76 84 79 68 57 41 19 355 330 323 323 328
250 254 257 266 277 277 278 286 296 310 322 315 309 311 313 310 307 304 301 300 298 296 300 302 291 279 268 257 248 240 225 206 200 203 201 188 166 147 135 129 124 117 109 106 103 97 94 91 87 88 91 93 98 102 103 102 103 107 112 112 111 115 115 102 96 107 116 118 116 111 106 101 99 97 90 80 73 70 71 69 64 60 56 42 23 12 5
267 266 266 275 280 274 276 285 292 298 302 300 300 303 303 304 304 299 292 290 293 293 288 285 286 277 256 235 230 219 187 156 170 190 185 169 153 141 134 130 125 117 111 110 107 102 98 95 92 90 90 91 93 99 104 106 105 107 113 114 111 113 111 98 92 100 106 102 102 106 105 100 103 116 114 99 83 73 73 74 70 69 72 68 59 51 38
263 264 266 270 273 273 274 277 278 279 284 288 289 291 294 299 297 288 281 278 281 280 271 260 264 269 241 198 178 169 144 118 123 148 147 140 138 134 130 127 123 117 112 108 105 103 99 95 92 89 86 84 86 89 93 97 99 101 106 111 112 113 113 111 109 107 104 100 100 103 105 105 104 104 107 107 101 92 87 78 64 61 63 58 53 53 43
260 264 266 265 265 266 266 266 266 268 273 278 282 285 289 288 281 275 272 269 263 259 253 240 217 196 183 159 144 139 133 125 129 141 143 141 136 132 130 128 121 115 113 109 105 103 100 97 95 91 86 83 85 88 89 92 96 99 100 102 103 103 105 106 103 97 92 91 89 85 84 87 93 89 83 80 84 91 97 92 76 63 42 21 19 19 9
257 258 261 261 260 257 255 256 260 267 275 279 283 286 285 280 272 268 265 259 250 239 229 217 195 176 165 158 154 151 146 143 149 154 151 142 134 130 127 123 119 115 111 106 103 102 101 99 97 95 92 91 93 95 96 96 95 95 94 92 90 89 89 91 89 85 82 79 77 76 73 72 77 81 81 81 81 79 74 61 49 47 34 8 352 346 347
253 253 252 251 251 252 252 253 257 266 276 276 274 278 277 267 257 254 250 241 225 211 204 196 183 169 159 160 167 166 159 156 157 154 146 137 130 126 121 118 116 114 110 106 104 101 98 96 94 92 91 92 93 95 95 95 94 94 94 93 91 87 84 82 82 81 78 74 72 70 69 70 75 76 72 68 67 67 63 47 26 15 17 0 339 335 343
249 247 241 240 245 252 256 257 259 269 278 277 271 269 264 252 242 241 246 244 216 201 195 185 176 167 157 155 160 160 157 155 151 143 138 132 126 122 121 118 115 110 106 104 102 101 99 98 95 93 90 89 89 89 89 89 89 91 92 93 94 93 90 89 89 87 84 81 78 76 71 69 72 75 71 67 62 56 53 46 28 11 2 352 340 339 347
244 239 235 236 239 243 247 250 253 261 269 269 263 257 247 228 202 174 110 26 17 349 258 210 186 168 148 143 142 132 125 125 124 122 123 121 117 115 116 115 112 107 102 98 95 94 96 95 93 94 97 98 97 95 95 94 92 91 91 90 90 90 92 95 98 98 95 93 91 88 81 72 67 67 67 67 64 58 52 45 28 7 357 352 347 347 348
236 231 229 230 230 232 235 238 241 250 257 252 238 220 189 157 137 119 100 83 67 36 5 335 195 156 136 128 121 109 100 99 101 103 103 101 99 98 98 97 96 95 96 94 90 89 88 87 86 88 92 96 100 101 102 102 102 102 101 98 96 95 95 97 100 98 96 93 87 78 73 70 66 63 59 54 50 48 45 37 20 1 352 349 350 351 348
234 228 222 221 220 222 226 229 235 238 226 196 174 162 147 132 116 99 87 78 70 54 35 23 31 119 128 123 111 100 97 96 92 90 87 86 86 85 83 82 81 82 84 86 85 86 87 86 83 83 84 89 94 96 97 99 102 103 103 100 99 98 93 93 95 93 87 84 80 70 64 61 58 55 52 46 40 38 36 28 12 357 348 345 348 349 345
228 227 217 209 207 211 214 215 215 208 190 174 162 146 133 122 107 91 76 64 56 47 41 39 26 22 90 115 111 103 101 98 91 85 82 78 78 78 77 75 74 72 72 71 70 71 76 80 80 78 77 79 84 87 89 90 90 92 97 100 98 93 85 80 84 87 83 79 78 73 67 61 55 52 50 44 36 34 33 22 9 0 350 345 352 353 343
221 219 203 191 191 197 200 195 185 173 167 162 146 127 121 117 105 89 73 64 57 40 26 36 35 27 45 82 94 95 94 90 86 87 86 83 80 78 77 75 71 67 64 62 61 60 60 64 70 73 69 66 69 71 74 82 83 80 83 88 87 84 81 75 74 79 82 80 80 80 75 66 56 48 43 38 33 34 35 25 10 1 348 345 356 0 349
184 157 136 136 144 155 160 154 149 148 145 129 114 106 107 108 101 91 80 72 69 58 44 43 46 44 48 61 73 82 85 85 84 84 83 81 80 78 76 76 74 69 64 60 59 60 55 49 53 64 64 59 55 45 41 58 79 74 68 73 76 74 74 74 71 72 76 75 71 67 61 55 51 43 35 31 28 28 30 22 7 358 349 343 352 359 358
83 88 94 105 124 136 139 133 131 130 119 106 102 99 95 92 89 86 81 73 67 64 61 56 51 47 48 55 62 65 68 73 77 78 77 77 77 76 75 75 73 70 64 55 52 55 53 46 48 59 61 54 47 38 32 42 67 72 65 70 77 75 75 77 72 67 65 62 59 55 50 46 43 35 28 27 24 20 18 13 4 358 350 343 348 357 1
40 44 54 61 83 101 98 89 93 98 92 90 95 95 90 84 77 74 75 71 63 59 60 58 54 47 42 49 59 63 63 64 69 72 73 73 71 69 69 67 64 64 62 51 45 48 48 43 45 55 59 55 50 41 35 41 58 69 67 69 74 74 74 74 71 67 64 62 59 55 48 43 39 33 27 26 23 19 16 13 6 360 355 352 356 3 7
35 40 57 58 59 74 78 72 72 76 75 73 74 74 74 76 73 69 69 68 66 64 62 60 59 56 49 46 51 56 61 65 70 71 69 67 65 63 61 57 54 55 54 49 46 46 46 43 44 48 53 56 53 44 37 42 57 68 69 70 72 71 69 68 66 64 61 60 59 54 47 42 39 35 30 25 21 18 15 12 9 8 6 5 7 9 9
37 42 58 59 53 58 68 67 65 66 67 67 65 62 63 67 69 68 67 64 64 67 67 64 61 58 54 49 46 44 46 52 61 65 64 62 61 60 57 51 48 49 49 47 45 41 40 44 48 47 45 48 52 49 43 46 57 65 67 67 68 66 64 64 64 61 58 56 55 55 54 50 45 41 36 29 24 22 20 16 14 13 11 11 16 17 12
39 39 50 53 48 48 56 60 59 59 60 61 62 60 58 58 59 61 61 57 55 58 62 63 62 58 54 52 50 45 41 42 46 51 53 54 55 56 52 45 41 41 43 44 43 39 37 40 47 48 44 43 47 52 53 54 57 61 63 63 64 64 62 61 59 57 54 52 49 49 52 52 50 47 42 36 32 29 26 23 21 18 13 13 18 20 16
40 37 40 44 45 43 44 46 49 51 53 53 54 55 56 56 55 53 52 51 49 50 54 58 61 60 56 55 55 52 48 46 45 45 46 47 49 51 50 40 36 38 41 42 42 40 39 38 39 40 40 39 42 51 57 59 60 61 60 59 58 59 59 58 57 55 53 51 48 45 45 49 50 48 43 40 37 34 32 30 28 24 20 19 20 20 17
40 39 39 41 43 42 39 38 41 44 45 44 44 48 53 56 56 52 48 48 48 47 47 50 54 55 55 56 58 57 54 52 50 49 49 48 45 46 48 42 37 38 42 42 40 39 39 37 35 34 35 38 44 51 55 57 59 60 60 58 57 57 57 56 55 54 53 52 50 46 42 44 48 47 44 42 40 37 35 35 33 29 28 28 28 27 25
39 40 41 40 40 41 40 41 44 46 44 41 42 46 51 54 54 51 46 45 45 44 44 46 48 49 49 51 53 54 54 53 52 51 52 50 47 45 46 44 41 40 41 43 42 39 37 35 34 35 38 41 46 52 56 57 56 57 58 58 57 57 57 55 53 52 50 49 48 46 44 44 46 46 45 44 42 38 36 36 35 33 32 31 31 34 37
44 44 44 42 41 44 46 48 48 47 46 44 45 46 48 48 48 47 47 47 46 45 44 45 48 50 52 52 51 50 49 50 52 53 53 52 48 44 42 42 43 43 44 45 44 41 38 37 39 42 45 47 48 51 53 55 54 54 55 56 55 55 56 55 53 52 50 48 47 47 46 46 46 46 45 45 41 37 34 34 33 32 32 30 28 31 37
52 49 48 48 47 48 49 48 46 46 50 53 53 52 51 51 51 51 51 51 49 46 45 46 48 50 53 55 56 56 54 52 53 55 56 56 51 45 43 44 45 45 47 48 46 41 39 42 44 45 46 48 50 51 51 52 52 52 53 54 54 55 55 54 53 52 50 50 50 50 50 49 49 48 46 44 42 37 33 31 30 29 29 29 27 25 27
61 58 56 55 54 53 53 52 50 50 53 56 57 56 55 57 58 57 56 55 53 51 49 48 48 48 48 50 54 59 60 58 56 55 58 61 60 55 52 53 52 50 50 50 47 42 40 42 45 46 47 48 50 52 52 51 52 52 52 52 53 53 53 53 53 52 51 51 51 51 51 52 52 51 48 46 44 40 36 32 32 32 31 30 30 29 28
66 66 64 62 61 60 58 56 53 51 50 53 55 55 56 58 61 61 60 59 58 56 54 53 51 49 48 46 46 49 54 57 56 54 55 59 61 57 52 51 55 58 57 53 48 47 46 45 44 45 47 49 50 52 53 53 53 54 53 52 52 52 53 54 54 53 52 51 51 51 52 52 53 53 52 49 46 43 39 36 35 34 33 32 32 31 30
58 59 58 58 58 57 55 54 53 51 49 50 53 54 55 58 61 62 61 60 60 60 58 56 54 52 50 49 47 45 45 49 51 49 49 53 57 55 46 40 44 56 64 60 53 50 50 48 45 45 47 50 52 53 53 53 54 54 54 53 52 51 51 51 52 54 54 53 51 50 50 49 49 51 52 52 50 48 45 43 41 39 38 39 40 39 36
49 50 50 49 49 48 48 48 49 48 47 48 51 52 53 54 56 57 57 58 59 58 57 56 54 52 52 52 50 47 46 48 50 51 50 52 54 55 49 41 39 45 56 62 58 51 47 46 46 46 48 50 51 52 52 52 52 53 53 54 54 53 52 51 50 51 53 54 53 52 51 50 49 48 48 50 51 51 49 49 48 45 43 44 46 47 46
44 48 49 48 46 45 45 45 43 43 44 46 48 50 52 52 50 47 45 49 54 56 54 51 48 46 47 50 52 51 49 49 51 52 53 55 56 56 54 49 46 45 49 55 57 53 47 43 43 46 50 52 51 50 51 52 52 51 51 51 51 51 51 51 51 50 51 52 53 52 51 49 49 48 47 47 48 48 49 50 50 46 42 42 43 44 45
39 41 46 50 50 48 47 47 45 42 41 42 43 45 48 52 52 46 39 36 39 45 47 46 43 38 35 38 44 48 48 48 49 48 47 49 52 53 53 50 48 48 48 49 49 50 48 44 41 41 47 53 54 52 51 51 51 51 51 51 50 48 45 42 44 47 49 48 49 50 50 47 46 45 45 43 42 42 41 41 40 38 37 38 38 38 39
41 35 37 43 48 47 46 47 47 44 42 40 41 40 41 44 47 46 40 33 30 30 33 39 42 39 33 30 33 38 41 45 48 47 44 42 43 44 46 45 43 41 41 43 45 47 48 47 44 41 41 46 50 50 48 48 48 47 46 46 47 48 46 40 35 34 38 40 41 42 42 40 37 34 34 32 30 29 30 29 27 26 27 28 30 33 35